Location: Mascot Post Office (historical)
(40.2645°N, 99.5462°W)
Time: 17:11:22
(UTC+00:00)

Cosmos 1452 Rocket - Pass Details

Date: 14 July 2020
Orbit: 768 x 774 km, 74.1° (Epoch: 05 August)

Event Time Altitude Azimuth Distance (km) Brightness Sun altitude
Rises 04:43:08 0° 346° (NNW) 3,250 8.1 -22.0°
Reaches altitude 10° 04:45:37 10° 352° (N) 2,319 6.9 -22.3°
Maximum altitude 04:50:42 48° 67° (ENE) 999 4.0 -22.7°
Enters shadow 04:51:41 43° 99° (E) 1,076 3.9 -22.8°
